Regional Weather Roundup
Issued by NWS

Home | Current Version | Previous Version | Graphics & Text | Print | Product List | Glossary Off
Versions: 1 2 3 4 5 6 7 8 9 10 11 12 13 14 15 16 17 18 19 20 21 22 23 24 25 26 27 28 29 30 31 32 33 34 35 36 37 38 39 40 41 42 43 44 45 46 47 48 49 50

000
ASUS43 KTOP 300059
RWRKS

WEATHER ROUNDUP FOR KANSAS
NATIONAL WEATHER SERVICE GOODLAND KS
800 PM CDT FRI AUG 29 2014

NOTE:  "FAIR" INDICATES FEW OR NO CLOUDS BELOW 12,000 FEET WITH NO
SIGNIFICANT WEATHER AND/OR OBSTRUCTIONS TO VISIBILITY.

KSZ001>006-013>018-027>032-041>047-300200-
NORTHWEST KANSAS

CITY           SKY/WX    TMP DP  RH WIND       PRES   REMARKS
GOODLAND       CLEAR     75  55  49 NE5       29.98
HAYS           CLEAR     81  55  41 N5        29.87S
HILL CITY      CLEAR     80  59  48 NE5       29.88R
RUSSELL        CLEAR     80  60  50 NW3       29.84S
$$

KSZ061>065-074>080-084>089-300200-
SOUTHWEST KANSAS

CITY           SKY/WX    TMP DP  RH WIND       PRES   REMARKS
DODGE CITY     CLEAR     79  51  37 N7        29.91R
ELKHART          N/A     83  49  30 N6          N/A
GARDEN CITY    CLEAR     80  51  36 NE7       29.93R
GREAT BEND     CLEAR     82  63  51 NW5       29.86R
LIBERAL        CLEAR     82  52  34 E9        29.95R
$$

KSZ066>073-081>083-090>101-300200-
SOUTHEAST KANSAS

CITY           SKY/WX    TMP DP  RH WIND       PRES   REMARKS
CHANUTE        PTCLDY    80  65  59 SW5       29.84S
COFFEYVILLE    PTCLDY    82  66  58 S10       29.85R
HUTCHINSON     CLEAR     79  66  64 S9        29.85R
NEWTON         CLEAR     79  63  57 S12G18    29.88S
PARSONS        PTCLDY    81  65  58 VRB5      29.86
WICHITA INTL   PTCLDY    76  70  82 S7        29.85S
WICHITA JABRA  PTCLDY    77  66  68 S9        29.85S
WICHITA MCCONL MOCLDY    75  73  94 S7        29.85F
WINFIELD       PTCLDY    77  68  73 S14       29.86R
$$

KSZ007>012-019>026-033>040-048>060-102>105-300200-
NORTHEAST KANSAS

CITY           SKY/WX    TMP DP  RH WIND       PRES   REMARKS
CONCORDIA      CLEAR     77  69  76 CALM      29.83R
EMPORIA        CLEAR     80  65  59 SW12      29.83
LAWRENCE       TSTM      75  66  73 NW13G22   29.82R
MANHATTAN      CLEAR     80  65  59 W5        29.79R
OLATHE IND     CLEAR     80  65  59 S9        29.81
OLATHE EXE     CLEAR     79  66  64 S7        29.80
SALINA         CLEAR     83  59  44 SW6       29.82
TOPEKA BILLARD LGT RAIN  73  69  87 CALM      29.79F
TOPEKA FORBES  PTCLDY    73  69  87 E12       29.80S
$$



USA.gov is the U.S. government's official web portal to all federal, state and local government web resources and services.